Casablanca, Morocco

9:48 AM WEST on August 20, 2017 (GMT +0100)
Casablanca

Weather History for GMMC - November, 2013

Change the Weather History Date:

Saturday, November 2, 2013

  Actual Average (GMMN) Record (GMMN)
Temperature  
Mean Temperature 64 °F -  
Max Temperature 74 °F 68 °F 91 °F (1996)
Min Temperature 53 °F 49 °F 42 °F (2013)
Degree Days  
Heating Degree Days 2    
Growing Degree Days 14 (Base 50)    
Moisture  
Dew Point 54 °F    
Average Humidity 72    
Maximum Humidity 94    
Minimum Humidity 35    
Precipitation  
Precipitation 0.00 in 0.10 in - ()
Sea Level Pressure  
Sea Level Pressure 30.04 in    
Wind  
Wind Speed 2 mph ()    
Max Wind Speed 8 mph    
Max Gust Speed -    
Visibility 6.1 miles    
Events      
Averages and records for this station are not official NWS values.
T = Trace of Precipitation, MM = Missing Value Source: Averaged Metar Reports

Daily Weather History Graph

Daily Weather History Graph

Search for Another Location

Airport or City:

Trip Planner

Search our weather history database for the weather conditions in past years. The results will help you decide how hot, cold, wet, or windy it might be!

Date:

Astronomy

Nov. 02, 2013 Rise Set
Actual Time 6:50 AM WET 5:37 PM WET
Civil Twilight 6:24 AM WET 6:03 PM WET
Nautical Twilight 5:55 AM WET 6:32 PM WET
Astronomical Twilight 5:26 AM WET 7:01 PM WET
Moon 5:35 AM WET (11/2) 4:58 PM WET (11/2)
Length of Visible Light 11h 38m
Length of Day
10h 47m
Waning Crescent, 1% of the Moon is Illuminated
Nov 2
Waning Crescent
Nov 3
New
Nov 10
First Quarter
Nov 17
Full
Nov 25
Last Quarter

Hourly Weather History & Observations

Time (WET) Temp. Dew Point Humidity Pressure Visibility Wind Dir Wind Speed Gust Speed Precip Events Conditions
12:00 AM 61 °F 58 °F 85% 30.09 in 9 mi Calm Calm - -  
12:00 AM 60.8 °F 57.2 °F 88% 30.06 in - Calm Calm - N/A   Clear
1:00 AM 59.0 °F 57.2 °F 94% 30.06 in - Calm Calm - N/A   Clear
2:00 AM 57.2 °F 55.4 °F 94% 30.06 in - Calm Calm - N/A   Clear
3:00 AM 55 °F 51 °F 84% 30.07 in 9 mi Calm Calm - -  
3:00 AM 55.4 °F 51.8 °F 88% 30.06 in - Calm Calm - N/A   Clear
4:00 AM 53.6 °F 51.8 °F 94% 30.04 in - SSE 2.3 mph - N/A   Clear
5:00 AM 53.6 °F 50.0 °F 88% 30.04 in - South 2.3 mph - N/A   Clear
6:00 AM 54 °F 49 °F 79% 30.06 in 9 mi SSW 3.5 mph - -  
6:00 AM 53.6 °F 50.0 °F 88% 30.04 in - SSW 3.5 mph - N/A   Clear
7:00 AM 53.6 °F 48.2 °F 82% 30.04 in - SSW 3.5 mph - N/A   Clear
8:00 AM 55.4 °F 46.4 °F 72% 30.04 in - SSW 3.5 mph - N/A   Clear
9:00 AM 63 °F 49 °F 49% 30.08 in 6 mi South 3.5 mph - -  
9:00 AM 62.6 °F 48.2 °F 59% 30.04 in - South 3.5 mph - N/A   Clear
10:00 AM 69.8 °F 42.8 °F 38% 30.04 in 3.7 mi NE 2.3 mph - N/A   Unknown
11:00 AM 71.6 °F 46.4 °F 41% 30.04 in 3.7 mi NE 3.5 mph - N/A   Unknown
12:00 PM 73 °F 51 °F 35% 30.06 in 4 mi North 6.9 mph - -  
12:00 PM 73.4 °F 51.8 °F 47% 30.04 in 3.7 mi North 6.9 mph - N/A   Unknown
1:00 PM 73.4 °F 51.8 °F 47% 30.04 in 3.7 mi North 6.9 mph - N/A   Unknown
2:00 PM 73.4 °F 57.2 °F 57% 30.04 in 3.7 mi North 6.9 mph - N/A   Unknown
3:00 PM 72 °F 55 °F 44% 30.03 in 6 mi NNE 4.6 mph - -  
3:00 PM 71.6 °F 55.4 °F 57% 30.01 in - NNE 4.6 mph - N/A   Clear
4:00 PM 71.6 °F 62.6 °F 73% 30.01 in - North 6.9 mph - N/A   Clear
5:00 PM 69.8 °F 62.6 °F 78% 30.01 in - NNE 8.1 mph - N/A   Clear
6:00 PM 67 °F 61 °F 76% 30.04 in 9 mi NE 4.6 mph - -  
6:00 PM 68.0 °F 60.8 °F 78% 30.01 in - NE 4.6 mph - N/A   Clear
7:00 PM 66.2 °F 60.8 °F 83% 30.01 in - ENE 5.8 mph - N/A   Clear
8:00 PM 66.2 °F 60.8 °F 83% 30.04 in - ENE 4.6 mph - N/A   Clear
9:00 PM 62 °F 57 °F 79% 30.09 in 9 mi East 3.5 mph - -  
9:00 PM 62.6 °F 57.2 °F 82% 30.04 in - East 3.5 mph - N/A   Clear
10:00 PM 60.8 °F 55.4 °F 82% 30.06 in - Calm Calm - N/A   Clear
11:00 PM 60.8 °F 57.2 °F 88% 30.04 in - Calm Calm - N/A   Clear